Terminal Aerodrome Forecast
Issued by NWS

Home | Current Version | Previous Version | Text Only | Print | Product List | Glossary On
Versions: 1 2 3 4 5 6 7 8 9 10 11 12 13 14 15 16 17 18 19 20 21 22 23 24 25 26 27 28 29 30 31 32 33 34 35 36 37 38 39 40 41 42 43 44 45 46 47 48 49 50
000
FTUS42 KMFL 211728
TAFOPF
TAF
KOPF 211728Z 2118/2218 08012KT P6SM SCT035 BKN050 BKN250
     FM220100 14006KT P6SM BKN050 BKN250
     FM221000 15007KT P6SM VCSH SCT030 BKN050 OVC100
     FM221400 16014KT 5SM SHRA BKN030 OVC050=

USA.gov is the U.S. government's official web portal to all federal, state and local government web resources and services.